Wind_Speed
19 18 17 16 15 14 13 11 10 10 10 10 11 11 11 11 11 11 10 10 9 8 8 9 9 10 10 10 11 11 11 12 12 12 12 12 11 10 10 9 9 9
19 19 19 17 16 14 13 12 11 11 11 11 12 12 12 12 11 11 11 10 9 8 8 9 9 10 10 10 11 11 11 12 12 12 12 13 11 10 11 10 10 10
19 19 19 18 16 15 14 14 13 12 12 12 12 12 12 12 12 12 11 11 10 9 9 9 9 9 9 10 10 11 12 12 13 12 12 13 12 11 11 11 10 10
19 19 19 18 17 17 16 16 15 14 13 13 13 13 12 12 13 13 12 11 11 10 9 9 9 9 9 9 10 10 11 12 12 12 13 13 12 12 11 11 11 10
19 19 19 19 19 18 17 17 16 15 15 14 14 14 13 13 13 13 13 12 12 11 11 10 10 10 9 9 9 9 10 11 12 12 13 13 13 12 12 12 12 12
19 19 19 20 20 19 18 18 17 17 17 16 16 15 14 14 13 13 13 13 13 13 12 11 10 10 10 10 10 10 10 10 11 12 12 13 13 13 12 12 13 13
19 19 19 20 20 20 19 18 18 18 18 18 18 17 16 15 14 14 13 13 14 14 14 13 12 11 11 10 10 10 10 10 11 11 12 13 13 13 13 13 13 13
21 20 19 19 20 20 20 20 19 19 19 19 19 18 18 17 15 15 14 14 15 15 15 14 14 13 12 11 11 11 11 11 10 10 11 12 13 13 13 13 12 12
22 22 21 20 20 20 21 21 21 20 20 20 20 19 19 19 18 16 16 16 16 16 16 15 15 14 13 13 12 12 11 11 11 10 10 11 12 13 13 13 13 13
22 22 22 22 21 20 20 20 21 21 21 21 21 21 20 20 19 19 18 17 17 17 17 16 16 15 15 14 13 12 12 12 12 11 11 11 12 12 13 13 13 13
22 22 22 23 22 21 20 20 20 21 21 22 22 22 22 21 20 20 19 19 18 18 18 17 17 17 16 16 15 14 14 13 13 13 12 12 12 12 13 13 13 13
23 23 22 23 23 22 22 21 21 22 22 22 22 23 24 23 22 21 21 20 19 19 19 18 18 18 18 17 17 16 16 15 15 14 14 13 13 13 13 13 13 13
24 24 23 23 23 23 23 23 23 23 23 23 22 23 24 25 24 23 22 21 20 20 20 20 20 20 19 19 19 18 18 17 16 15 15 15 14 14 14 14 14 14
26 26 26 25 24 24 24 24 24 24 25 25 24 23 24 25 26 25 24 23 22 22 22 21 21 21 21 21 21 21 20 19 18 17 17 16 16 16 16 16 16 15
29 28 29 28 27 27 26 25 25 25 26 27 26 25 25 25 26 27 26 25 25 24 24 24 24 23 23 22 21 21 21 21 20 19 19 18 18 18 18 18 17 17
32 32 31 30 29 29 28 28 28 27 26 27 27 27 27 27 27 27 28 27 26 26 26 26 26 25 24 23 22 21 21 21 21 21 21 21 20 20 20 19 19 19
34 34 32 31 30 30 30 29 30 30 29 29 28 28 28 28 28 28 29 29 28 27 27 28 28 27 26 24 22 22 21 21 22 22 22 22 22 22 22 21 21 21
35 36 35 32 31 31 31 31 31 31 32 32 31 30 30 29 29 30 30 31 31 30 29 29 29 28 27 26 24 24 24 23 24 23 23 23 24 24 24 23 23 23
32 35 37 35 33 32 32 32 32 33 33 33 33 33 33 32 32 32 31 31 31 32 32 30 29 29 29 28 26 25 26 26 26 26 26 25 25 25 25 25 25 25
28 31 36 37 36 35 35 34 34 34 33 33 33 33 34 34 34 34 34 33 33 33 33 32 31 30 30 29 27 27 27 28 29 29 29 28 28 27 27 27 27 27
28 29 33 36 37 38 38 38 37 36 35 35 34 35 35 34 34 34 35 35 35 35 35 34 33 32 31 29 27 27 27 28 30 31 32 32 31 30 30 29 28 28
31 28 31 34 36 37 38 39 39 39 39 39 39 38 38 37 36 35 35 35 35 35 36 36 35 34 33 31 28 27 28 29 31 32 33 34 34 33 32 31 31 30
36 33 32 32 33 35 37 38 38 38 39 40 40 41 41 41 39 38 38 38 36 35 35 36 36 35 35 34 32 30 30 30 32 33 34 35 35 35 34 33 33 32
37 37 36 33 32 33 34 37 38 37 38 39 39 40 40 40 39 39 39 39 38 37 36 36 34 35 36 35 34 33 33 33 34 34 36 36 37 36 36 35 34 34
30 34 35 35 35 33 33 35 37 37 38 39 40 39 40 39 39 40 39 38 36 37 38 37 35 35 36 37 35 34 34 35 36 37 38 39 39 38 38 38 37 35
25 28 31 33 36 36 34 34 36 37 37 39 40 40 40 40 40 41 41 39 37 36 37 37 36 37 38 37 35 35 35 35 36 38 40 41 41 41 40 40 39 37
Wind_Direction
203 201 201 199 196 196 193 193 195 197 199 202 203 205 205 203 198 195 197 198 195 191 189 190 191 188 186 188 189 191 195 194 194 198 200 194 189 189 189 191 191 186
207 205 204 203 201 199 197 197 200 201 202 205 208 210 211 211 210 205 203 202 199 196 194 193 194 192 190 191 189 189 193 193 193 197 197 191 185 187 189 190 193 190
209 209 209 207 205 204 203 203 204 205 207 210 213 216 216 217 219 216 210 208 204 200 198 196 197 197 195 195 193 189 192 194 194 197 197 192 187 188 190 191 193 195
212 211 211 211 209 208 207 207 207 207 211 213 215 218 220 219 221 222 218 215 211 205 203 201 199 200 202 202 199 194 191 193 195 198 198 195 192 192 193 194 194 197
213 213 212 213 213 212 211 211 210 210 212 216 217 219 222 223 222 222 222 221 218 212 208 206 200 200 205 206 205 202 195 194 198 201 201 200 199 198 198 200 201 202
212 214 214 215 216 215 215 214 213 213 215 217 220 221 222 224 224 224 223 223 223 218 213 210 206 201 203 205 207 208 203 201 205 205 204 205 206 205 206 208 208 209
211 214 215 217 218 218 218 218 217 217 217 218 222 223 223 224 225 226 226 224 224 222 219 218 213 207 206 205 206 210 209 209 212 211 209 210 212 211 212 214 215 214
212 212 215 217 220 221 220 221 222 222 221 222 224 225 226 226 226 227 227 225 224 223 222 223 221 216 213 211 210 211 212 213 215 216 213 213 215 216 217 220 222 219
216 214 214 217 219 222 223 224 226 226 226 226 226 227 229 228 227 228 228 226 224 223 223 225 226 224 220 219 217 215 214 216 218 219 217 216 217 220 221 223 225 223
218 217 216 218 219 221 224 225 228 230 229 228 226 227 230 230 229 228 229 228 227 226 225 226 228 227 226 226 225 224 221 220 221 222 222 221 220 220 222 223 224 225
218 219 219 220 220 221 223 223 227 230 231 229 227 228 231 232 232 231 230 229 229 229 229 228 229 229 228 228 228 229 229 227 226 225 224 223 223 222 222 223 224 225
219 220 221 222 221 222 224 223 224 229 232 230 228 228 230 233 235 235 234 231 230 231 231 230 230 230 230 228 229 231 231 231 231 230 228 227 226 225 225 226 227 229
222 222 222 222 223 223 225 226 225 228 232 233 230 228 230 233 235 237 237 234 232 232 232 232 232 232 232 230 229 230 231 232 233 234 234 232 230 229 229 230 231 233
222 223 223 224 224 224 225 227 228 228 231 233 233 231 230 232 234 237 238 237 235 234 234 234 234 234 234 234 232 233 232 233 234 234 234 235 235 234 233 234 235 236
220 222 224 225 225 225 225 226 228 229 232 233 233 233 233 232 233 236 238 237 236 235 235 236 236 236 237 236 236 236 237 237 237 236 235 235 236 237 237 238 238 239
218 222 224 225 226 226 226 227 228 228 230 233 234 233 234 234 234 235 238 239 238 236 236 237 238 239 239 239 240 240 241 241 241 240 238 238 237 237 238 240 241 241
215 221 225 226 227 228 227 227 228 229 229 231 233 233 233 234 234 235 236 239 241 240 238 238 240 241 241 240 241 242 242 243 244 244 242 242 241 240 240 241 242 242
212 217 224 227 227 229 230 230 229 230 230 231 232 233 234 234 236 237 237 238 242 243 243 242 242 244 244 243 240 241 242 244 246 247 247 246 245 245 244 243 243 244
217 215 219 225 228 229 231 232 232 232 233 234 234 235 236 236 236 238 239 239 240 243 246 247 246 246 247 246 243 241 242 244 246 248 249 249 249 248 248 247 245 245
230 222 216 218 224 228 230 232 233 234 235 236 237 237 238 238 238 239 241 241 241 243 245 247 248 249 249 249 247 244 243 244 246 248 249 250 250 250 250 250 249 248
237 233 222 217 220 224 227 231 233 235 237 237 237 238 240 241 241 241 241 242 242 244 246 247 248 250 251 250 248 246 245 244 245 247 249 250 250 250 250 251 251 250
237 235 227 224 224 224 224 227 228 230 232 233 233 235 237 238 240 242 244 245 245 245 245 247 248 250 252 252 250 247 245 244 245 246 248 250 251 251 251 251 251 251
237 236 231 230 230 228 226 227 227 228 229 231 232 233 235 236 236 236 238 241 243 245 247 248 249 249 251 252 252 251 248 246 246 247 249 251 252 253 253 252 252 252
236 236 235 235 235 233 232 230 229 232 234 235 236 238 241 244 245 244 242 241 240 241 243 246 249 251 253 252 251 251 251 250 249 249 251 253 254 255 255 255 253 252
241 239 239 239 237 238 239 235 230 232 235 237 238 240 243 247 249 250 253 254 251 249 247 246 246 248 252 254 253 252 251 251 251 251 252 254 255 256 256 257 257 255
253 249 247 244 240 238 241 240 235 233 233 234 237 240 242 243 245 247 249 252 255 258 259 257 253 251 251 252 253 254 254 254 254 253 253 254 256 257 257 258 258 258
Height
3224 3225 3226 3228 3229 3231 3232 3233 3234 3235 3236 3237 3237 3238 3239 3240 3241 3241 3242 3243 3243 3244 3244 3245 3245 3246 3246 3246 3247 3248 3248 3249 3250 3251 3252 3253 3254 3255 3256 3257 3257 3258
3223 3224 3226 3227 3229 3230 3231 3232 3233 3234 3235 3236 3237 3238 3238 3239 3240 3241 3242 3242 3243 3243 3244 3245 3245 3245 3246 3246 3247 3247 3248 3249 3250 3251 3251 3252 3253 3254 3255 3256 3257 3257
3222 3223 3225 3226 3228 3229 3230 3231 3233 3234 3235 3236 3237 3237 3238 3239 3240 3241 3242 3242 3243 3243 3244 3244 3245 3245 3246 3246 3247 3247 3248 3248 3249 3250 3251 3252 3252 3253 3254 3255 3256 3257
3220 3222 3224 3225 3227 3228 3229 3230 3232 3233 3234 3235 3236 3237 3238 3238 3239 3240 3241 3242 3243 3243 3244 3244 3245 3245 3246 3246 3246 3247 3247 3248 3249 3250 3250 3251 3252 3253 3254 3254 3255 3256
3219 3221 3222 3224 3225 3227 3228 3229 3231 3232 3233 3234 3235 3236 3237 3238 3238 3239 3240 3241 3242 3243 3243 3244 3244 3245 3245 3246 3246 3247 3247 3248 3248 3249 3250 3251 3252 3252 3253 3254 3255 3255
3218 3219 3221 3222 3224 3225 3227 3228 3229 3231 3232 3233 3234 3235 3236 3237 3238 3238 3239 3240 3241 3242 3243 3243 3243 3244 3245 3245 3246 3246 3247 3247 3248 3248 3249 3250 3251 3252 3252 3253 3254 3255
3217 3218 3219 3221 3222 3224 3225 3227 3228 3229 3230 3231 3232 3233 3234 3236 3237 3237 3238 3239 3240 3241 3241 3242 3242 3243 3244 3244 3245 3246 3246 3247 3247 3248 3248 3249 3250 3250 3251 3252 3253 3254
3215 3216 3218 3219 3221 3222 3224 3225 3227 3228 3229 3230 3231 3232 3233 3234 3235 3236 3237 3238 3239 3239 3240 3241 3242 3242 3243 3243 3244 3245 3245 3246 3246 3247 3247 3248 3249 3249 3250 3251 3252 3252
3213 3214 3216 3217 3219 3220 3222 3223 3225 3226 3227 3229 3230 3231 3232 3233 3234 3235 3236 3237 3237 3238 3239 3240 3240 3241 3242 3242 3243 3244 3244 3245 3245 3246 3246 3247 3248 3248 3249 3250 3250 3251
3212 3213 3214 3215 3217 3218 3220 3222 3223 3224 3226 3227 3228 3229 3230 3231 3232 3233 3234 3235 3236 3237 3238 3238 3239 3240 3241 3241 3242 3242 3243 3244 3244 3245 3245 3246 3246 3247 3248 3249 3249 3250
3210 3211 3212 3214 3215 3217 3218 3220 3221 3222 3223 3225 3226 3227 3228 3229 3230 3231 3232 3233 3234 3235 3236 3237 3238 3238 3239 3240 3240 3241 3242 3242 3243 3244 3244 3245 3245 3246 3247 3248 3248 3249
3207 3209 3211 3212 3213 3215 3216 3217 3219 3220 3221 3222 3224 3225 3226 3227 3228 3229 3230 3232 3233 3234 3234 3235 3236 3237 3237 3238 3239 3240 3240 3241 3241 3242 3243 3243 3244 3245 3246 3246 3247 3248
3204 3206 3208 3210 3211 3213 3214 3215 3217 3218 3219 3220 3221 3223 3224 3225 3226 3227 3228 3230 3231 3232 3232 3233 3234 3235 3236 3236 3237 3238 3238 3239 3240 3241 3241 3242 3243 3244 3244 3245 3246 3246
3201 3202 3205 3207 3208 3210 3212 3213 3214 3215 3216 3217 3219 3220 3221 3223 3224 3225 3226 3228 3229 3230 3230 3231 3232 3233 3233 3234 3235 3236 3237 3238 3238 3239 3240 3240 3241 3242 3242 3243 3244 3244
3197 3199 3201 3203 3204 3206 3208 3210 3212 3213 3214 3215 3216 3217 3219 3220 3221 3223 3224 3225 3226 3227 3228 3229 3230 3230 3231 3232 3233 3234 3235 3236 3237 3237 3238 3239 3239 3240 3240 3241 3242 3242
3194 3195 3197 3199 3200 3202 3204 3206 3208 3210 3211 3212 3213 3214 3216 3217 3218 3220 3221 3222 3223 3225 3226 3226 3227 3228 3229 3231 3232 3233 3234 3234 3235 3235 3236 3237 3237 3238 3238 3239 3240 3240
3190 3192 3194 3195 3197 3199 3200 3202 3204 3206 3208 3209 3210 3212 3213 3214 3215 3216 3218 3219 3220 3221 3223 3224 3225 3226 3227 3229 3230 3231 3232 3233 3233 3233 3234 3234 3235 3236 3236 3237 3238 3238
3186 3188 3190 3192 3193 3195 3197 3199 3200 3202 3203 3205 3207 3208 3210 3211 3212 3214 3215 3216 3217 3218 3219 3221 3222 3223 3225 3227 3228 3230 3230 3231 3231 3232 3232 3232 3233 3233 3234 3235 3235 3236
3185 3185 3186 3188 3190 3191 3193 3194 3196 3198 3200 3202 3204 3205 3207 3208 3210 3211 3212 3213 3215 3216 3217 3218 3219 3221 3222 3224 3226 3227 3228 3229 3229 3229 3230 3230 3231 3231 3231 3232 3233 3233
3186 3184 3182 3183 3185 3187 3188 3190 3192 3193 3196 3198 3200 3202 3203 3205 3207 3208 3209 3211 3212 3213 3214 3215 3217 3218 3219 3221 3223 3225 3226 3227 3227 3227 3227 3228 3228 3229 3229 3229 3230 3231
3186 3184 3181 3180 3180 3182 3184 3186 3188 3190 3193 3195 3196 3198 3200 3202 3204 3205 3206 3208 3209 3211 3212 3213 3214 3215 3216 3218 3220 3222 3223 3224 3225 3225 3225 3225 3225 3226 3226 3227 3227 3228
3183 3183 3181 3179 3178 3178 3179 3180 3183 3185 3188 3190 3192 3193 3195 3197 3199 3202 3204 3205 3207 3208 3209 3210 3212 3213 3214 3216 3218 3220 3221 3221 3222 3222 3222 3222 3222 3223 3224 3225 3225 3225
3178 3179 3178 3177 3176 3175 3176 3177 3179 3181 3184 3186 3187 3190 3191 3191 3192 3194 3197 3199 3202 3204 3206 3208 3209 3211 3212 3213 3215 3217 3218 3219 3219 3219 3219 3219 3220 3221 3221 3222 3222 3223
3173 3174 3174 3173 3172 3171 3172 3174 3178 3181 3184 3185 3187 3190 3192 3192 3193 3194 3195 3197 3198 3199 3201 3203 3205 3208 3210 3211 3213 3214 3215 3216 3217 3217 3217 3217 3217 3218 3218 3219 3219 3220
3170 3170 3170 3169 3168 3168 3169 3172 3176 3178 3180 3182 3184 3186 3189 3190 3191 3193 3196 3197 3198 3198 3198 3198 3200 3203 3205 3206 3209 3212 3213 3214 3214 3214 3215 3215 3215 3216 3216 3216 3217 3218
3166 3166 3166 3164 3164 3164 3167 3170 3173 3173 3174 3177 3180 3182 3185 3186 3187 3188 3190 3193 3195 3197 3198 3198 3199 3200 3200 3201 3204 3207 3209 3211 3211 3211 3212 3212 3213 3213 3213 3214 3214 3215